CFG2344 EDDF-EDDM

Flight info

Callsign CFG2344
Flight time 0h 32m
Altitude 23000
Route CINDY8S/18 CINDY Z74 HAREM T104 ROKIL ROKIL1A
Aircraft A321/M-SDE3FGHIRWY/LB1

Departure

Time 2026-05-06 09:49
Airport Frankfurt Main Airport (EDDF)

Arrival

Time 2026-05-06 10:21
Airport Munich Airport (EDDM)
Time Latitude Longitude Altitude Speed Heading
2026-05-06 09:17 50.04858 8.57523 360 ft 0 kts 203°
2026-05-06 09:37 50.04875 8.57534 363 ft 4 kts 204°
2026-05-06 09:37 50.04899 8.57551 365 ft 4 kts 197°
2026-05-06 09:37 50.04922 8.57556 356 ft 4 kts 149°
2026-05-06 09:37 50.04928 8.57550 356 ft 3 kts 115°
2026-05-06 09:38 50.04917 8.57586 365 ft 4 kts 115°
2026-05-06 09:38 50.04907 8.57621 360 ft 1 kts 115°
2026-05-06 09:38 50.04906 8.57623 360 ft 0 kts 115°
2026-05-06 09:41 50.04897 8.57656 362 ft 7 kts 114°
2026-05-06 09:41 50.04872 8.57744 364 ft 10 kts 112°
2026-05-06 09:41 50.04846 8.57842 358 ft 9 kts 113°
2026-05-06 09:41 50.04797 8.57908 358 ft 11 kts 156°
2026-05-06 09:42 50.04719 8.57907 364 ft 12 kts 215°
2026-05-06 09:42 50.04679 8.57780 360 ft 14 kts 250°
2026-05-06 09:42 50.04645 8.57636 358 ft 14 kts 249°
2026-05-06 09:42 50.04612 8.57498 363 ft 14 kts 249°
2026-05-06 09:43 50.04577 8.57356 359 ft 15 kts 251°
2026-05-06 09:43 50.04532 8.57165 358 ft 23 kts 249°
2026-05-06 09:43 50.04472 8.56913 364 ft 24 kts 250°
2026-05-06 09:43 50.04414 8.56670 358 ft 24 kts 249°
2026-05-06 09:44 50.04357 8.56428 356 ft 24 kts 249°
2026-05-06 09:44 50.04299 8.56182 359 ft 24 kts 251°
2026-05-06 09:44 50.04239 8.55938 360 ft 24 kts 250°
2026-05-06 09:44 50.04181 8.55693 360 ft 24 kts 250°
2026-05-06 09:45 50.04122 8.55448 358 ft 24 kts 250°
2026-05-06 09:45 50.04067 8.55214 359 ft 22 kts 249°
2026-05-06 09:45 50.04012 8.54992 354 ft 22 kts 248°
2026-05-06 09:45 50.03959 8.54766 356 ft 23 kts 249°
2026-05-06 09:46 50.03903 8.54534 354 ft 23 kts 250°
2026-05-06 09:46 50.03833 8.54311 351 ft 23 kts 238°
2026-05-06 09:46 50.03767 8.54083 348 ft 23 kts 250°
2026-05-06 09:46 50.03711 8.53852 348 ft 23 kts 250°
2026-05-06 09:47 50.03655 8.53618 347 ft 23 kts 248°
2026-05-06 09:47 50.03597 8.53386 338 ft 23 kts 249°
2026-05-06 09:47 50.03540 8.53149 337 ft 23 kts 250°
2026-05-06 09:47 50.03483 8.52911 334 ft 24 kts 248°
2026-05-06 09:48 50.03434 8.52726 331 ft 16 kts 250°
2026-05-06 09:48 50.03389 8.52595 334 ft 10 kts 200°
2026-05-06 09:48 50.03379 8.52593 333 ft 0 kts 183°
2026-05-06 09:48 50.03326 8.52593 334 ft 32 kts 180°
2026-05-06 09:49 50.02859 8.52598 333 ft 99 kts 180°
2026-05-06 09:49 50.01994 8.52609 335 ft 148 kts 179°
2026-05-06 09:49 50.01005 8.52619 524 ft 165 kts 181°
2026-05-06 09:49 49.99860 8.52638 1177 ft 165 kts 180°
2026-05-06 09:50 49.98698 8.52645 1739 ft 172 kts 182°
2026-05-06 09:50 49.97438 8.52781 1930 ft 194 kts 167°
2026-05-06 09:50 49.96231 8.53941 2083 ft 219 kts 135°
2026-05-06 09:50 49.95409 8.56006 2384 ft 230 kts 122°
2026-05-06 09:51 49.94617 8.58214 2953 ft 236 kts 121°
2026-05-06 09:51 49.94057 8.60589 3600 ft 243 kts 101°
2026-05-06 09:51 49.93921 8.63322 3916 ft 266 kts 95°
2026-05-06 09:51 49.93808 8.66255 4632 ft 276 kts 97°
2026-05-06 09:52 49.93294 8.69111 5454 ft 277 kts 121°
2026-05-06 09:52 49.92079 8.71390 6287 ft 275 kts 145°
2026-05-06 09:52 49.90520 8.73119 7093 ft 277 kts 147°
2026-05-06 09:52 49.88982 8.74956 7904 ft 282 kts 139°
2026-05-06 09:53 49.87742 8.77350 8677 ft 290 kts 123°
2026-05-06 09:53 49.86753 8.80100 9488 ft 293 kts 122°
2026-05-06 09:53 49.85769 8.82853 10094 ft 303 kts 122°
2026-05-06 09:53 49.84699 8.85813 10300 ft 326 kts 122°
2026-05-06 09:54 49.83547 8.88977 10551 ft 346 kts 122°
2026-05-06 09:54 49.82351 8.92265 11115 ft 354 kts 122°
2026-05-06 09:54 49.81139 8.95603 11811 ft 357 kts 122°
2026-05-06 09:54 49.79918 8.98966 12550 ft 360 kts 122°
2026-05-06 09:55 49.78686 9.02361 13284 ft 363 kts 122°
2026-05-06 09:55 49.77442 9.05783 13959 ft 367 kts 122°
2026-05-06 09:55 49.76299 9.09334 14617 ft 372 kts 114°
2026-05-06 09:55 49.75577 9.13039 15226 ft 377 kts 107°
2026-05-06 09:56 49.74796 9.16853 15838 ft 377 kts 116°
2026-05-06 09:56 49.73569 9.20430 16454 ft 377 kts 126°
2026-05-06 09:56 49.71949 9.23610 17076 ft 378 kts 134°
2026-05-06 09:56 49.70208 9.26678 17695 ft 381 kts 134°
2026-05-06 09:57 49.68456 9.29766 18242 ft 384 kts 134°
2026-05-06 09:57 49.66688 9.32882 18770 ft 387 kts 134°
2026-05-06 09:57 49.64903 9.36022 19255 ft 391 kts 134°
2026-05-06 09:57 49.63104 9.39187 19760 ft 394 kts 134°
2026-05-06 09:58 49.61320 9.42329 20248 ft 397 kts 134°
2026-05-06 09:58 49.59496 9.45545 20750 ft 400 kts 134°
2026-05-06 09:58 49.57656 9.48789 21223 ft 403 kts 134°
2026-05-06 09:58 49.55799 9.52056 21722 ft 406 kts 134°
2026-05-06 09:59 49.53928 9.55339 22210 ft 409 kts 134°
2026-05-06 09:59 49.52040 9.58643 22663 ft 412 kts 135°
2026-05-06 09:59 49.50147 9.61958 22776 ft 413 kts 134°
2026-05-06 09:59 49.48248 9.65279 22802 ft 413 kts 135°
2026-05-06 10:00 49.46374 9.68554 22802 ft 413 kts 135°
2026-05-06 10:00 49.44476 9.71858 22803 ft 412 kts 135°
2026-05-06 10:00 49.42575 9.75157 22805 ft 412 kts 135°
2026-05-06 10:00 49.40675 9.78446 22805 ft 411 kts 135°
2026-05-06 10:01 49.38775 9.81733 22814 ft 411 kts 135°
2026-05-06 10:01 49.36882 9.85012 22810 ft 411 kts 135°
2026-05-06 10:01 49.34983 9.88296 22804 ft 410 kts 135°
2026-05-06 10:01 49.33090 9.91567 22810 ft 411 kts 135°
2026-05-06 10:02 49.31218 9.94796 22812 ft 411 kts 135°
2026-05-06 10:02 49.29318 9.98067 22812 ft 411 kts 135°
2026-05-06 10:02 49.27423 10.01327 22812 ft 410 kts 135°
2026-05-06 10:02 49.25523 10.04596 22813 ft 410 kts 135°
2026-05-06 10:03 49.23626 10.07854 22814 ft 410 kts 135°
2026-05-06 10:03 49.21727 10.11102 22811 ft 410 kts 135°
2026-05-06 10:03 49.19823 10.14349 22809 ft 410 kts 135°
2026-05-06 10:03 49.17919 10.17589 22808 ft 409 kts 136°
2026-05-06 10:04 49.16019 10.20827 22813 ft 409 kts 136°
2026-05-06 10:04 49.14122 10.24057 22816 ft 409 kts 136°
2026-05-06 10:04 49.12228 10.27214 22815 ft 408 kts 137°
2026-05-06 10:04 49.10281 10.30370 22822 ft 408 kts 137°
2026-05-06 10:05 49.08344 10.33468 22612 ft 398 kts 137°
2026-05-06 10:05 49.06451 10.36485 22337 ft 390 kts 137°
2026-05-06 10:05 49.04584 10.39458 22065 ft 386 kts 137°
2026-05-06 10:05 49.02735 10.42402 21801 ft 384 kts 137°
2026-05-06 10:06 49.00905 10.45322 21503 ft 377 kts 137°
2026-05-06 10:06 48.99114 10.48186 21080 ft 370 kts 137°
2026-05-06 10:06 48.97372 10.50968 20651 ft 366 kts 137°
2026-05-06 10:06 48.95626 10.53750 20226 ft 361 kts 137°
2026-05-06 10:07 48.93900 10.56497 19800 ft 357 kts 137°
2026-05-06 10:07 48.92191 10.59218 19378 ft 355 kts 137°
2026-05-06 10:07 48.90460 10.61961 18923 ft 363 kts 136°
2026-05-06 10:07 48.88712 10.64723 18468 ft 362 kts 137°
2026-05-06 10:08 48.86968 10.67479 18017 ft 361 kts 136°
2026-05-06 10:08 48.85232 10.70222 17491 ft 359 kts 137°
2026-05-06 10:08 48.83532 10.72902 16990 ft 356 kts 137°
2026-05-06 10:08 48.81821 10.75597 16506 ft 353 kts 137°
2026-05-06 10:09 48.80122 10.78271 16003 ft 351 kts 137°
2026-05-06 10:09 48.78431 10.80931 15538 ft 349 kts 137°
2026-05-06 10:09 48.76757 10.83565 15158 ft 345 kts 137°
2026-05-06 10:09 48.75096 10.86176 14782 ft 343 kts 137°
2026-05-06 10:10 48.73442 10.88775 14411 ft 341 kts 137°
2026-05-06 10:10 48.71797 10.91351 14051 ft 339 kts 137°
2026-05-06 10:10 48.70164 10.93905 13689 ft 337 kts 137°
2026-05-06 10:10 48.68537 10.96448 13297 ft 335 kts 137°
2026-05-06 10:11 48.66938 10.98947 12902 ft 334 kts 137°
2026-05-06 10:11 48.65326 11.01463 12510 ft 332 kts 137°
2026-05-06 10:11 48.63723 11.03967 12111 ft 331 kts 137°
2026-05-06 10:11 48.62124 11.06461 11717 ft 330 kts 136°
2026-05-06 10:12 48.60531 11.08942 11311 ft 328 kts 136°
2026-05-06 10:12 48.58944 11.11406 10920 ft 328 kts 136°
2026-05-06 10:12 48.57350 11.13872 10518 ft 327 kts 137°
2026-05-06 10:12 48.55791 11.16286 10114 ft 312 kts 137°
2026-05-06 10:13 48.54347 11.18530 9734 ft 293 kts 137°
2026-05-06 10:13 48.52955 11.20692 9304 ft 284 kts 137°
2026-05-06 10:13 48.51577 11.22826 8886 ft 284 kts 136°
2026-05-06 10:13 48.50197 11.24960 8482 ft 283 kts 136°
2026-05-06 10:14 48.48825 11.27081 8107 ft 281 kts 136°
2026-05-06 10:14 48.47467 11.29178 7791 ft 277 kts 136°
2026-05-06 10:14 48.46124 11.31245 7489 ft 275 kts 136°
2026-05-06 10:14 48.44795 11.33291 7137 ft 270 kts 135°
2026-05-06 10:15 48.43521 11.35254 6798 ft 261 kts 135°
2026-05-06 10:15 48.42270 11.37183 6450 ft 254 kts 135°
2026-05-06 10:15 48.41048 11.39060 6109 ft 248 kts 135°
2026-05-06 10:15 48.39847 11.40902 5754 ft 247 kts 135°
2026-05-06 10:16 48.38656 11.42730 5531 ft 241 kts 135°
2026-05-06 10:16 48.37500 11.44501 5347 ft 235 kts 135°
2026-05-06 10:16 48.36359 11.46249 5176 ft 233 kts 135°
2026-05-06 10:16 48.35251 11.48004 5067 ft 232 kts 128°
2026-05-06 10:17 48.34516 11.50091 4933 ft 221 kts 107°
2026-05-06 10:17 48.34352 11.52257 4681 ft 204 kts 86°
2026-05-06 10:17 48.34510 11.54301 4464 ft 189 kts 84°
2026-05-06 10:17 48.34663 11.56203 4195 ft 178 kts 84°
2026-05-06 10:18 48.34806 11.58003 3958 ft 168 kts 84°
2026-05-06 10:18 48.34917 11.59670 3713 ft 155 kts 91°
2026-05-06 10:18 48.34721 11.61221 3385 ft 150 kts 112°
2026-05-06 10:18 48.34275 11.62616 3104 ft 147 kts 117°
2026-05-06 10:19 48.33823 11.63995 2837 ft 147 kts 113°
2026-05-06 10:19 48.33484 11.65431 2532 ft 145 kts 102°
2026-05-06 10:19 48.33434 11.66925 2435 ft 145 kts 84°
2026-05-06 10:19 48.33540 11.68435 2399 ft 145 kts 83°
2026-05-06 10:20 48.33660 11.69950 2287 ft 146 kts 83°
2026-05-06 10:20 48.33785 11.71439 2050 ft 145 kts 83°
2026-05-06 10:20 48.33901 11.72930 1871 ft 144 kts 84°
2026-05-06 10:20 48.34015 11.74429 1624 ft 144 kts 84°
2026-05-06 10:21 48.34131 11.75900 1490 ft 135 kts 84°
2026-05-06 10:21 48.34221 11.77099 1477 ft 89 kts 83°
2026-05-06 10:21 48.34277 11.77820 1475 ft 55 kts 83°
2026-05-06 10:21 48.34332 11.78227 1477 ft 31 kts 69°
2026-05-06 10:22 48.34442 11.78487 1481 ft 29 kts 53°
2026-05-06 10:22 48.34559 11.78709 1476 ft 26 kts 40°
2026-05-06 10:22 48.34694 11.78724 1485 ft 15 kts 341°
2026-05-06 10:22 48.34719 11.78605 1477 ft 12 kts 268°
2026-05-06 10:23 48.34707 11.78506 1480 ft 10 kts 266°
2026-05-06 10:23 48.34702 11.78405 1482 ft 9 kts 265°
2026-05-06 10:23 48.34696 11.78316 1475 ft 8 kts 263°
2026-05-06 10:23 48.34689 11.78239 1485 ft 7 kts 263°
2026-05-06 10:24 48.34684 11.78175 1485 ft 6 kts 263°
2026-05-06 10:24 48.34680 11.78124 1479 ft 5 kts 263°
2026-05-06 10:24 48.34676 11.78077 1485 ft 7 kts 264°
2026-05-06 10:24 48.34669 11.77980 1485 ft 9 kts 266°
2026-05-06 10:25 48.34686 11.77908 1473 ft 8 kts 321°
2026-05-06 10:25 48.34743 11.77888 1482 ft 8 kts 354°
2026-05-06 10:25 48.34802 11.77879 1486 ft 9 kts 353°
2026-05-06 10:25 48.34864 11.77867 1475 ft 9 kts 353°
2026-05-06 10:26 48.34929 11.77855 1476 ft 10 kts 353°
2026-05-06 10:26 48.34997 11.77842 1484 ft 10 kts 353°
2026-05-06 10:26 48.35068 11.77831 1485 ft 10 kts 354°
2026-05-06 10:26 48.35139 11.77820 1474 ft 11 kts 354°
2026-05-06 10:27 48.35182 11.77888 1483 ft 10 kts 83°
2026-05-06 10:27 48.35190 11.77996 1481 ft 11 kts 82°
2026-05-06 10:27 48.35200 11.78112 1473 ft 12 kts 84°
2026-05-06 10:27 48.35156 11.78193 1480 ft 11 kts 164°
2026-05-06 10:28 48.35077 11.78208 1478 ft 12 kts 174°
2026-05-06 10:28 48.34996 11.78222 1482 ft 11 kts 173°
2026-05-06 10:28 48.34942 11.78245 1476 ft 5 kts 118°
2026-05-06 10:28 48.34941 11.78287 1480 ft 4 kts 83°
2026-05-06 10:29 48.34944 11.78319 1483 ft 3 kts 82°
2026-05-06 10:29 48.34946 11.78345 1485 ft 3 kts 83°
2026-05-06 10:29 48.34948 11.78366 1485 ft 0 kts 83°
2026-05-06 10:30 48.34948 11.78368 1485 ft 0 kts 83°